Погода в Калевале

Поиск расширенной информации на нашем сайте:

Полезная информация:

Новости сайта



02.01.2020
Опубликован Долгосрочный прогноз погоды по городам России и ближнего зарубежья на январь 2020 года.
Карты: Прогноз на январь и февраль 2020 года, Сравнение прогнозируемой аномалии приземной температуры воздуха на январь 2020 года по разным моделям.




Погода в Калевале - сегодня

Время (UTC), дата Ветер
(°,м/с) 
Видим.   Явления Облачность Т
(°С)
Тd
(°С)
f(%) Тe
(°С)
Pmin
(гПа)
dP
(гПа)
Po
(мм)
O2
(г/м3)
Тmin Tmax R s Состояние
почвы
15 29.11.20 200 (Ю) 50000 м    9/9 630 м 
[Sc]
-2.2 -3.3 92 -4  1031.3  -0.7  762  310      0.0     
18 29.11.20 190 (Ю) 50000 м    10/10 300 м 
[Sc]
-3.1 -4.2 92 -5  1030.6  -0.8  761  311    -1.5  0.0     
21 29.11.20 200 (Ю) 50000 м    10/10 300 м 
[Sc]
-4.4 -5.6 91 -7  1030.4  -0.3  761  312           
00 30.11.20 200 (Ю) 50000 м    10/10 270 м 
[Sc]
-4.3 -5.4 92 -6  1029.1  -1.2  760  312           
03 30.11.20 180 (Ю) 50000 м    10/10 270 м 
[St]
-4.1 -5.2 92 -7  1027.6  -1.5  759  311  -4.5    0.0     
06 30.11.20 180 (Ю) 50000 м    10/10 240 м 
[St]
-3.8 -4.9 92 -7  1026  -1.6  758  310  -4.5      10  равномерный
сухой снег
100% 
09 30.11.20 170 (Ю) 20000 м    10/10 540 м 
[Sc]
-3.8 -4.9 92 -6  1024.6  -1.3  757  310           
12 30.11.20 140 (ЮВ) 40000 м  {ливн. осадки}  10/10 300 м кучево-дожд. 
[Cb calv]
-3.7 -4.5 94 -6  1022.3  -2.3  755  309           
15 30.11.20 170 (Ю) 50000 м    10/10 150 м 
[St]
-2.7 -3.5 94 -5  1020.4  -1.8  754  307      0.0     
18 30.11.20 170 (Ю) 50000 м    10/10 180 м 
[St]
-1.4 -2.1 95 -4  1018.1  -2.2  752  305    -1.4  0.0     
21 30.11.20 180 (Ю) 40000 м    10/10 150 м 
[St]
-0.6 -1.2 96 -2  1016.7  -1.3  751  303           
00 01.12.20 170 (Ю) 50000 м    10/10 450 м 
[Sc]
-0.4 -1 96 -2  1015.1  -1.6  750  303           
03 01.12.20 180 (Ю) 50000 м    9/9 930 м 
[Sc]
-1.6 -2.3 95 -4  1014.1  -1.1  749  304  -2.7         
06 01.12.20 200 (Ю) 50000 м    10/10 900 м 
[Sc]
-1.5 -2.8 91 -3  1013.9  -0.1  749  304  -2.4      10  равномерный
сухой снег
100% 
09 01.12.20 200 (Ю) 20000 м    10/10 420 м 
[Sc]
-0.9 -2.8 87 -3  1014.1  0.2  749  303           
12 01.12.20 190 (Ю) 5000 м  слаб. ливневой снег  10/10 400 м кучево-дожд. 
[Cb calv]
-1.4 -2.9 89 -4  1013.9  -0.2  749  304           
15 01.12.20 170 (Ю) 4300 м  слаб. снег{ливн. осадки}  10/10 270 м 
[Frnb|Ns]
-2.6 -3.3 95 -5  1014.2  0.2  749  305      0.8     
21 01.12.20 260 (З) 50000 м    10/10 300 м 
[St]
-1.6 -2.2 96 -3  1017.8  2.4  752  305           
00 02.12.20 260 (З) 8000 м  слаб. ливневой снег  10/10 450 м кучево-дожд. 
[Cb calv]
-1.2 -1.8 96 -1  1020.4  2.6  754  305           
03 02.12.20 280 (З) 30000 м  {ливн. осадки}  10/8 420 м средняя 
[Sc|Ac trans]
-2.1 -3.5 90 -4  1022.5  755  307  -2.8    0.8     
06 02.12.20 270 (З) 9000 м  слаб. ливневой снег  10/10 400 м кучево-дожд. 
[Cb calv|Ac trans]
-3 -3.9 94 -4  1023.7  1.1  756  309  -3    0.0  11  равномерный
сухой снег
100% 
09 02.12.20 250 (З) 50000 м  {ливн. осадки}  10/10 300 м 
[Sc]
-3 -4.3 91 -5  1024.8  1.1  757  309           
12 02.12.20 240 (ЮЗ) 50000 м  {ливн. осадки}  10/10 420 м 
[Sc]
-1.9 -3.7 87 -5  1024.3  -0.4  757  307           
15 02.12.20 200 (Ю) 50000 м    10/10 360 м 
[Sc]
-2.9 -4.3 90 -5  1024.2  -0.2  757  309      0.0     
18 02.12.20 190 (Ю) 50000 м    10/10 570 м кучево-дожд. 
[Cb calv]
-2.7 -4.1 90 -4  1024.2  757  308    -1.9  0.0     
Время (UTC), дата Ветер
(°,м/с) 
Видим.   Явления Облачность Т
(°С)
Тd
(°С)
f(%) Тe
(°С)
Pmin
(гПа)
dP
(гПа)
Po
(мм)
O2
(г/м3)
Тmin Tmax R s Состояние
почвы

Для получения пояснительной информации подведите курсор к названию столбца.

ПОГОДА в Калевале - архив

Всё, что Вы хотите узнать о погоде в Калевале - удобно и подробно!

Выберите нужную дату (начиная с 1 января 2019* года) и нажмите кнопку "Найти".
Будут отображены архивные сводки погоды по пункту Калевала, начиная с указанной даты.


Отображать данные в формате CSV (для использования в таблицах Excel)


Внимание! Наш архив погоды предназначен исключительно для личного некоммерческого использования в познавательных целях. Если Вам необходимы официальные справки о состоянии погоды (для производственных, юридических, коммерческих и т.п. целей), обращайтесь в органы Росгидромета.

*Примечание: данная дата относится к архиву по метеостанциям СССР (Россия, СНГ, Балтия).
Архив по метеостанциям Зарубежной Европы и Азии (кроме Китая) хранится 10 дней, по другим регионам земного шара (Китай, Африка, Америка, Австралия, Океания) - 1 день.

Калевала - район местоположения метеостанции


Название, широта, долгота, высота метеостанции:
Калевала 65.2°ш. 31.2°д. 120 м над ур. моря [Российская Федерация]

Дополнительная информация

В oтличие oт бoльшинства пoгoдных сайтoв мы публикуем пoдрoбную метеoинфoрмацию в детальнoм прoфессиoнальнoм фoрмате.

Характеристики температуры и влажнoсти вoздуха измеряются на высoте 2 м в тени вдали oт зданий и деревьев.
Скoрoсть ветра измеряется на высoте 10 м (на урoвне рoста челoвека скoрoсть ветра ниже в 1.5-2 раза). Если метеoстанция нахoдится в гoрoде или в лесу, тo скoрoсть ветра занижена на 2-4 м/с пo сравнению с oткрытым местoм. Скoрoсть ветра над акватoриями крупных рек и oзёр, а также на вершинах хoлмoв на 2-5 м/с выше, чем в oбычных услoвиях.
Атмoсфернoе давление в разных тoчках местнoсти мoжет значительнo oтличаться oт давления на метеoстанции, в зависимoсти oт услoвий рельефа (при пoдъёме на 10 м давление пoнижается примернo на 1 мм рт.ст.).